User: anonymous   Login
Location: Brno
(49.2000°N, 16.6330°E)
Time: 09:45:52
(UTC+01:00)
Language:

Cosmos 332 Rocket - Orbit

View from above orbital plane
View from above orbital plane
View from above satellite
View from above satellite

Ground track
Ground track

The orbit data is extracted from the following two-line orbital elements,

1 04370U 70028B   16040.17391765  .00000245  00000-0  57577-4 0  9997
2 04370  74.0412 311.3505 0015648 350.5955   9.4914 14.59708438939892
Epoch (UTC): 09 February 2016 04:10:26
Eccentricity: 0.0015648
inclination: 74.0412°
perigee height: 683 km
apogee height: 705 km
right ascension of ascending node: 311.3505°
argument of perigee: 350.5955°
revolutions per day: 14.59708438
mean anomaly at epoch: 9.4914°
orbit number at epoch: 93989

The dashed part of the orbit path shows where the satellite is in the earth's shadow,  

DLR